Flag for Kosovo Weather past 2 weeks in Uroševac, Kosovo

Now
45 °F

Overcast.


Feels Like: 45 °F
Forecast: 37 / 49 °F
Wind: 2 mph from North

Location: Skopje-Petrovec

Current Time: Mar 28, 2015 at 7:30:52 PM

Latest Report: Mar 28, 2015 at 7:00 PM


Visibility: N/A

Pressure: 29.86 "Hg

Humidity: 76%

Dew point: 37 °F

Location of UroševacLocation

Historic Weather in Uroševac — Graph

°F

Uroševac temperature yesterday

Maximum temperature yesterday: 54 °F (at 12:30 PM)
Minimum temperature yesterday: 48 °F (at 5:30 AM)
Average temperature yesterday: 51 °F

Past Weeks' High & Low Weather Summary

 TemperatureHumidityPressure
High61 °F (Mar 16, 2:30 PM)100% (Mar 19, 3:30 AM)30.54 "Hg (Mar 19, 3:30 AM)
Low19 °F (Mar 21, 6:00 AM)12% (Mar 21, 3:00 PM)29.59 "Hg (Mar 27, 4:00 PM)
Average45 °F72%30.13 "Hg
* Reported Mar 13 6:00 PM — Mar 28 6:00 PM, Uroševac, Weather by CustomWeather, © 2015

Note: Actual official high and low records may vary slightly from our data, if they occured in-between our weather recording intervals... More about our weather records

Advertising

Uroševac weather history for previous 24 hours

 ConditionsComfort  
Time TempWeatherWind HumidityBarometerVisibility
6:00 PM
Sat, Mar 28
46 °FMostly cloudy.2 mph66%29.83 "HgN/A
5:30 PM46 °FMore clouds than sun.2 mph71%29.83 "HgN/A
5:00 PM48 °FMore clouds than sun.1 mph66%29.83 "HgN/A
4:30 PM48 °FMore clouds than sun.9 mph66%29.80 "HgN/A
4:00 PM48 °FMore clouds than sun.2 mph62%29.80 "HgN/A
3:30 PM48 °FMostly cloudy.6 mph66%29.80 "HgN/A
3:00 PM48 °FMostly cloudy.5 mph66%29.80 "HgN/A
2:30 PM48 °FMostly cloudy.8 mph71%29.80 "HgN/A
2:00 PM48 °FMostly cloudy.9 mph66%29.80 "HgN/A
1:30 PM48 °FOvercast.8 mph71%29.77 "HgN/A
1:00 PM48 °FOvercast.7 mph71%29.77 "HgN/A
12:30 PM46 °FMore clouds than sun.9 mph76%29.77 "HgN/A
12:00 PM46 °FDrizzle. More clouds than sun.9 mph76%29.77 "HgN/A
11:30 AM46 °FDrizzle. More clouds than sun.3 mph76%29.77 "HgN/A
11:00 AM46 °FMostly cloudy.6 mph76%29.77 "HgN/A
10:30 AM46 °FDrizzle. Mostly cloudy.8 mph76%29.77 "HgN/A
10:00 AM46 °FOvercast.5 mph71%29.77 "HgN/A
9:30 AM46 °FOvercast.8 mph76%29.77 "HgN/A
9:00 AM46 °FOvercast.7 mph76%29.74 "HgN/A
8:30 AM45 °FDrizzle. More clouds than sun.12 mph81%29.74 "HgN/A
8:00 AM45 °FLight rain. More clouds than sun.8 mph81%29.74 "HgN/A
7:30 AM45 °FCloudy.10 mph81%29.71 "HgN/A
7:00 AM46 °FDrizzle. Mostly cloudy.8 mph76%29.71 "HgN/A
6:30 AM48 °FDrizzle. Mostly cloudy.9 mph82%30.24 "HgN/A
6:00 AM48 °FMore clouds than sun.No wind82%30.24 "HgN/A
5:30 AM48 °FMore clouds than sun.No wind82%30.24 "HgN/A
4:30 AM50 °FDrizzle. Mostly cloudy.No wind82%30.24 "HgN/A
4:00 AM50 °FDrizzle. Mostly cloudy.No wind82%30.24 "HgN/A
3:30 AM50 °FDrizzle. Mostly cloudy.No wind94%29.62 "HgN/A
3:00 AM50 °FRain. Fog.No wind94%29.62 "Hg3 mi
2:00 AM50 °FRain. Fog.No wind94%29.62 "Hg3 mi
1:00 AM50 °FLight rain. Fog.No wind94%29.62 "Hg2 mi
12:30 AM50 °FDrizzle. Fog.No wind100%29.62 "Hg2 mi
12:00 AM50 °FLight rain. Mostly cloudy.2 mph100%29.62 "HgN/A
11:30 PM
Fri, Mar 27
50 °FRain. Fog.No wind100%29.62 "Hg3 mi
11:00 PM50 °FDrizzle. Fog.No wind100%29.62 "Hg3 mi
10:00 PM50 °FDrizzle. Mostly cloudy.No wind100%29.62 "Hg4 mi
9:30 PM50 °FDrizzle. Mostly cloudy.No wind100%29.62 "Hg4 mi
9:00 PM52 °FDrizzle. Mostly cloudy.No wind94%29.62 "Hg4 mi
8:30 PM52 °FDrizzle. Mostly cloudy.No wind94%29.62 "HgN/A
8:00 PM52 °FDrizzle. Mostly cloudy.No wind94%29.62 "HgN/A
7:30 PM52 °FDrizzle. Mostly cloudy.No wind94%29.62 "HgN/A
7:00 PM52 °FDrizzle. Mostly cloudy.No wind94%29.62 "HgN/A
Weather by CustomWeather, © 2015

See weather overviewHow to use our weather pages